Regional Weather Roundup
Issued by NWS Charleston, SC

Current Version | Previous Version | Graphics & Text | Print | Product List | Glossary On
Versions: 1 2 3 4 5 6 7 8 9 10 11 12 13 14 15 16 17 18 19 20 21 22 23 24 25 26 27 28 29 30 31 32 33 34 35 36 37 38 39 40 41 42 43 44 45 46 47 48 49 50
000 ASUS42 KCHS 271325 RWRCHS REGIONAL WEATHER ROUNDUP NATIONAL WEATHER SERVICE CHARLESTON SC 900 AM EDT WED AUG 27 2014 NOTE: "FAIR" INDICATES FEW OR NO CLOUDS BELOW 12,000 FEET WITH NO SIGNIFICANT WEATHER AND/OR OBSTRUCTIONS TO VISIBILITY. NOT ALL STATIONS ARE QUALITY CONTROLLED BY THE NATIONAL WEATHER SERVICE. USE DATA WITH CAUTION...ESPECIALLY DEWPOINT OBSERVATIONS. SCZ027-030-031-034>040-042>050-271400- ...SOUTH CAROLINA... CITY SKY/WX TMP DP RH WIND PRES REMARKS N CHARLESTON MOSUNNY 75 63 66 N9 30.03R WATERFRONT PRK N/A 73 N/A N/A N10 N/A FORT JOHNSON NOT AVBL MOUNT PLEASANT FAIR 73 64 73 N7 30.02F JOHNS ISLAND SUNNY 75 66 73 N8 30.03S PINOPOLIS N/A 73 66 78 N10 29.97R MONCKS CORNER NOT AVBL SUMMERVILLE FAIR 72 66 83 N6 30.05S BEAUFORT MCAS SUNNY 74 65 73 NE8 30.04R BEAUFORT ARPT FAIR 73 66 78 N8 30.03S HILTON HEAD IS SUNNY 75 66 73 N7 30.05R GEORGETOWN NOT AVBL WALTERBORO SUNNY 73 68 83 N3 30.06S ORANGEBURG SUNNY 72 60 66 N7 30.07R BARNWELL FAIR 73 63 68 N7 30.09R AIKEN FAIR 72 64 78 N5 30.13S MANNING FAIR 73 70 88 N7 30.05F KINGSTREE NOT AVBL COLUMBIA MOSUNNY 73 60 63 CALM 30.08R SUMTER SUNNY 71 63 74 N7 30.05S FLORENCE SUNNY 71 62 73 N8 30.06R MYRTLE BEACH SUNNY 72 63 73 N9 30.02R N MYRTLE BEACH NOT AVBL $$ GAZ063-065-086>088-099>101-113>116-118-119-134-136>141-150-271400- ...GEORGIA... CITY SKY/WX TMP DP RH WIND PRES REMARKS SAVANNAH ARPT SUNNY 73 64 73 N8 30.05S HUNTER AAF SUNNY 74 65 74 N5 30.02S FORT STEWART SUNNY 72 64 76 NE7 30.04R STATESBORO NOT AVBL SYLVANIA SUNNY 73 67 81 N6 30.08S CLAXTON NOT AVBL THOMSON SUNNY 72 68 89 CALM 30.15S AUGUSTA-BUSH SUNNY 72 63 73 N7 30.08S AUGUSTA-DANIEL SUNNY 73 61 65 N8 30.10R SWAINSBORO FAIR 77 66 69 NE5 30.09S VIDALIA N/A 73 64 73 NE6 30.08R ALMA SUNNY 73 65 75 N5 30.06R WAYCROSS SUNNY 79 70 74 NE8 30.05R HAZE JESUP N/A 77 68 73 NE5 30.06R BRUNSWICK SUNNY 77 68 73 N6 30.04R SAINT SIMONS SUNNY 76 69 79 N8 30.02R $$ SCZ027-028-034-036>038-045-046-048>050-GAZ119-141-271400- ...LAKE AND SUPPLEMENTAL COASTAL OBSERVATIONS... STATION/POSITION TIME TEMP WIND PRES WAVE SWELL AIR SEA DIR/SP/G HT/PER HT/PER/DIR (UTC) (F) (DEG/KT/KT) (MB) (FT/S) (FT/S/D) UPR LAKE MARION NOT AVBL WINYAH BAY 1300 71 350/ 5 1016.0S LAKE MURRAY 1300 71 360/ 2/ 6 1018.6R ACE BASIN NERRS 1300 73 20/ 3 1017.0S FORT PULASKI 1300 75 360/ 8/ 10 1017.1S SAPELO ISLAND 1300 77 10/ 9 1017.0S $$ ANZ835-935-AMZ111-154-330-350-352-354-374-450-454-472-271400- ...C-MAN AND BUOY OBSERVATIONS... STATION/POSITION TIME TEMP WIND PRES WAVE SWELL AIR SEA DIR/SP/G HT/PER HT/PER/DIR (UTC) (F) (DEG/KT/KT) (MB) (FT/S) (FT/S/D) FOLLY BEACH CMAN 1300 74 360/ 10/ 14 1016.9R BUOY 41004 1300 79 83 20/ 17/ 21 1014.5S 7/11 5/11 BUOY 41008 1300 80 84 30/ 14/ 17 1015.8S 5/ 9 3/ 80/ 9 5E ST. MARYS GA 1300 83 N/A 5/ 8 2/110/12 FRYING PAN BUOY NOT AVBL BUOY 41025 1300 79 10/ 21/ 27 1013.1F 9/12 7/130/12 CAPE LOOKOUT NC 1300 77 360/ 16/ 20 1014.5R BUOY 41002 1241 79 81 360/ 25/ 31 1007.6R 13/11 10/ 90/11 BUOY 41010 1300 82 83 360/ 8/ 10 1013.5R 8/10 8/ 40/10 BUOY 41012 NOT AVBL ST AUGUSTINE FL 1300 81 20/ 13/ 15 1016.3R CAPERS NEARSHORE 1200 72 10/ 10/ 12 N/A FRIPP NEARSHORE NOT AVBL $$

USA.gov is the U.S. government's official web portal to all federal, state and local government web resources and services.